Location: Palomar Mountain Lodge
(33.3110°N, 116.8495°W)
Time: 14:56:55
(UTC-07:00)

H-2A R/B - Pass Details

Date: 19 May 2017
Orbit: 246 x 33114 km, 28.2° (Epoch: 24 May)

Event Time Altitude Azimuth Distance (km) Brightness Sun altitude
Rises 12:43:56 0° 220° (SW) 18,299 9.1 76.6°
Reaches altitude 10° 13:08:09 10° 216° (SW) 21,981 9.7 75.6°
Maximum altitude 21:09:05 69° 197° (SSW) 2,595 4.5 -16.1°
Enters shadow 21:14:27 23° 119° (ESE) 2,488 4.0 -16.9°
